Погода Окунев Нос

Погода Окунев Нос : погода сейчас, прогноз погоды и архив. Всё, что Вы хотите узнать о погоде Окунев Нос!

Поиск расширенной информации на нашем сайте:

Другие новости

Новости СМИ2

Главная страница сайта

Новости сайта

03.07.2017

Напоминаем, что на нашем специализированном сайте Метеоцентр.Азия вы можете получить высокодетализированные автоматические прогнозы погоды по пунктам России, СНГ и мира в авиационном формате (включающие направление и скорость ветра, видимость, явления погоды, количество и форму облачности, нижнюю и верхнюю границу облачности).

Рекомендуем: Противокоррозионная полимерная ингибированная пленка.

Погода Окунев Нос - сегодня

Время (UTC), дата Ветер
(°,м/с) 
Видим.   Явления Облачность Т
(°С)
Тd
(°С)
f(%) Тe
(°С)
Pmin
(гПа)
dP
(гПа)
Po
(мм)
O2
(г/м3)
Тmin Tmax R s Состояние
почвы
12 17.07.18 340 (С) 20000 м    10/10 750 м 
[Sc]
+13.1 +9.6 79 +13  1020.9  0.7  764  292           
09 18.07.18 280 (З) 20000 м    9/9 660 м 
[Sc]
+13.3 +9.7 79 +15  1025.3  -0.4  767  293           
12 18.07.18 290 (З) 20000 м    3/1 1500 м средняя 
[Cu hum|Ac lent]
+16.4 +10.2 67 +18  1024.2  -0.8  766  289           
18 18.07.18 160 (Ю) 20000 м    6/0 средняя, верхняя 
[Ac trans|Cs]
+14.6 +12.7 88 +19  1022.8  -0.4  765  290           
00 19.07.18 160 (Ю) 20000 м    4/0 средняя 
[Ac trans]
+12.1 +11.8 98 +15  1023.2  0.7  765  293           
06 19.07.18 250 (З) 20000 м    5/0 средняя, верхняя 
[Ac trans|Ci fib]
+19.5 +13.9 70 +27  1023.8  0.2  766  285           
09 19.07.18 070 (В) 20000 м    4/0 средняя 
[Ac trans]
+22.9 +13.1 54 +28  1023.9  0.1  766  282           
12 19.07.18 050 (СВ) 20000 м    6/3 1000 м средняя, верхняя 
[Cu med, cong|Ac trans|Ci fib]
+22.8 +12.7 53 +27  1023.9  766  282           
18 19.07.18 070 (В) 20000 м    3/0 средняя 
[Ac trans]
+18.8 +12.5 67 +24  1024.3  0.4  766  286           
00 20.07.18 020 (С) 20000 м    9/0 верхняя 
[Cs]
+12.6 +12.3 98 +17  1026.2  0.8  768  293           
06 20.07.18 290 (З) 20000 м    3/3 1000 м верхняя 
[Cu med, cong|Cs]
+21.5 +16 71 +31  1026.6  768  283           
09 20.07.18 090 (В) 20000 м    3/3 1000 м верхняя 
[Cu hum|Cs]
+24.8 +13 48 +30  1025.7  -0.9  767  281           
12 20.07.18 030 (СВ) 20000 м    3/0 верхняя 
[Cs]
+25.6 +11 40 +28  1025  -0.7  767  281           
18 20.07.18 120 (ЮВ) 20000 м    3/0 верхняя 
[Ci fib]
+21.9 +11.9 53 +25  1024.2  0.1  766  284           
00 21.07.18 140 (ЮВ) 20000 м    ясно 
+13.3 +11.2 87 +17  1025.6  767  293           
06 21.07.18 180 (Ю) 20000 м    ясно 
+24.4 +12.6 48 +29  1024.7  -0.7  767  281           
09 21.07.18 200 (Ю) 20000 м    1/1 1500 м 
[Cu hum]
+26.4 +9.7 35 +27  1023.7  -1  766  280           
12 21.07.18 190 (Ю) 20000 м    1/0 верхняя 
[Ci fib]
+27.6 +8.9 31 +28  1022.3  -1.3  765  278           
18 21.07.18 140 (ЮВ) 20000 м    ясно 
+22.2 +13 56 +27  1021.2  -0.2  764  282           
00 22.07.18 190 (Ю) 20000 м    3/0 средняя 
[Ac trans]
+17.4 +11.9 70 +21  1022.4  0.9  765  287           
06 22.07.18 170 (Ю) 20000 м    ясно 
+24.8 +13.7 50 +31  1021.6  -0.8  764  280           
09 22.07.18 190 (Ю) 20000 м    3/0 средняя 
[Ac trans]
+26.9 +11.4 38 +30  1020.5  -1  764  278           
12 22.07.18 180 (Ю) 5{10}  20000 м    ясно 
+28 +10.6 34 +30  1019.3  -1.3  763  277           
15 22.07.18 170 (Ю) 20000 м    ясно 
+27.8 +10 33 +29  1018  -1.3  762  277    +28.5       
18 22.07.18 190 (Ю) 20000 м    ясно 
+25.1 +10.6 40 +27  1018.2  0.2  762  279           
Время (UTC), дата Ветер
(°,м/с) 
Видим.   Явления Облачность Т
(°С)
Тd
(°С)
f(%) Тe
(°С)
Pmin
(гПа)
dP
(гПа)
Po
(мм)
O2
(г/м3)
Тmin Tmax R s Состояние
почвы

Для получения пояснительной информации подведите курсор к названию столбца.

ПОГОДА Окунев Нос - архив

Всё, что Вы хотите узнать о погоде Окунев Нос - удобно и подробно!

Выберите нужную дату (начиная с 1 января 2015* года) и нажмите кнопку "Найти".
Будут отображены архивные сводки погоды по пункту Окунев Нос, начиная с указанной даты.


Отображать данные в формате CSV (для использования в таблицах Excel)


Внимание! Наш архив погоды предназначен исключительно для личного некоммерческого использования в познавательных целях. Если Вам необходимы официальные справки о состоянии погоды (для производственных, юридических, коммерческих и т.п. целей), обращайтесь в органы Росгидромета.

*Примечание: данная дата относится к архиву по метеостанциям СССР (Россия, СНГ, Балтия).
Архив по метеостанциям Зарубежной Европы и Азии (кроме Китая) хранится 10 дней, по другим регионам земного шара (Китай, Африка, Америка, Австралия, Океания) - 1 день.

Окунев Нос - район местоположения метеостанции


Название, широта, долгота, высота метеостанции:
Окунев Нос 66.2°ш. 52.6°д. 20 м над ур. моря [Российская Федерация]

Дополнительная информация

В oтличие oт бoльшинства пoгoдных сайтoв мы публикуем пoдрoбную метеoинфoрмацию в детальнoм прoфессиoнальнoм фoрмате.

Характеристики температуры и влажнoсти вoздуха измеряются на высoте 2 м в тени вдали oт зданий и деревьев.
Скoрoсть ветра измеряется на высoте 10 м (на урoвне рoста челoвека скoрoсть ветра ниже в 1.5-2 раза). Если метеoстанция нахoдится в гoрoде или в лесу, тo скoрoсть ветра занижена на 2-4 м/с пo сравнению с oткрытым местoм. Скoрoсть ветра над акватoриями крупных рек и oзёр, а также на вершинах хoлмoв на 2-5 м/с выше, чем в oбычных услoвиях.
Атмoсфернoе давление в разных тoчках местнoсти мoжет значительнo oтличаться oт давления на метеoстанции, в зависимoсти oт услoвий рельефа (при пoдъёме на 10 м давление пoнижается примернo на 1 мм рт.ст.).